Torna al catalogo

STARLINK-37262

AttivoComunicazioniVLEO
NORAD 68508·PAYLOAD·🇺🇸 United States

Lanciato Mar 30, 2026 da Cape Canaveral Space Force Station

Loading…

Prossimi Passaggi (prossime 24 ore)

TLE

AggiornatoSource: CelesTrak SupGP

Epoca: Sep 15, 2026, 03:59 UTC

1 68508C 26068A   26258.16645833  .00032050  00000+0  94641-3 0  2582
2 68508  53.1589 318.9906 0001301  87.3996   7.3700 15.34391700    14

Traccia STARLINK-37262 in tempo reale con AllMySat

Download on the App Store